{"data":{"norad_id":65593,"intl_designator":"2025-207B","name":"STARLINK-35269","alt_names":[],"object_type":"PAYLOAD","status":"ACTIVE","operator":null,"country":"US","launch_date":"2025-09-13","launch_site_code":"AFWTR","launch_vehicle":null,"mission":null,"orbit_class":"UNKNOWN","rcs_meters":null,"size_class":null,"mass_kg":null,"dimensions":null,"purposes":["comms"],"wikipedia_slug":null,"has_3d_model":false,"image_url":null,"decayed_at":null,"tle_current":{"epoch":"2026-05-25T02:59:49.142976Z","epoch_age_seconds":64370,"freshness":"FRESH","line1":"1 65593U 25207B   26145.12487434 -.00003030  00000+0 -20604-3 0  9997","line2":"2 65593  97.4505 213.6505 0002152 174.7444 185.3806 15.05640035 39757","mean_motion":15.05640035,"eccentricity":0.0002152,"inclination_deg":97.4505,"raan_deg":213.6505,"arg_perigee_deg":174.7444,"mean_anomaly_deg":185.3806,"bstar":-0.00020604,"rev_number":3975,"period_min":95.640389902358,"perigee_km":548.05088439653,"apogee_km":551.03255731798,"semimajor_km":6927.6787208573,"source":"CELESTRAK","updated_at":"2026-05-25T13:38:20.851834Z"}}}